China Lake, CA

2:08 PM PST on January 19, 2018 (GMT -0800)
China Lake NAWS

Weather History for KNID - July, 2013

Change the Weather History Date:

Monday, July 22, 2013

  Actual Average Record
Temperature  
Mean Temperature 88 °F -  
Max Temperature 102 °F 100 °F 109 °F (1996)
Min Temperature 77 °F 71 °F 61 °F (1999)
Cooling Degree Days 23    
Growing Degree Days 38 (Base 50)    
Moisture  
Dew Point 62 °F    
Average Humidity 49    
Maximum Humidity 82    
Minimum Humidity 25    
Precipitation  
Precipitation 0.15 in - - ()
Sea Level Pressure  
Sea Level Pressure 29.89 in    
Wind  
Wind Speed 8 mph (South)    
Max Wind Speed 29 mph    
Max Gust Speed 38 mph    
Visibility 10 miles    
Events Rain , Thunderstorm    
Averages and records for this station are not official NWS values.
T = Trace of Precipitation, MM = Missing Value Source: NWS Daily Summary

Daily Weather History Graph

Daily Weather History Graph

Search for Another Location

Airport or City:

Trip Planner

Search our weather history database for the weather conditions in past years. The results will help you decide how hot, cold, wet, or windy it might be!

Date:

Astronomy

Jul. 22, 2013 Rise Set
Actual Time 5:51 AM PDT 8:02 PM PDT
Civil Twilight 5:22 AM PDT 8:31 PM PDT
Nautical Twilight 4:47 AM PDT 9:06 PM PDT
Astronomical Twilight 4:09 AM PDT 9:44 PM PDT
Moon 7:55 PM PDT (7/22) 5:51 AM PDT (7/22)
Length of Visible Light 15h 08m
Length of Day
14h 11m
Full, 100% of the Moon is Illuminated
Jul 22
Full
Jul 29
Last Quarter
Aug 6
New
Aug 14
First Quarter
Aug 20
Full

Hourly Weather History & Observations

Time (PDT) Temp. Heat Index Dew Point Humidity Pressure Visibility Wind Dir Wind Speed Gust Speed Precip Events Conditions
12:56 AM 84.9 °F 83.6 °F 55.0 °F 36% 29.84 in 10.0 mi SSW 10.4 mph - 0.00 in   Scattered Clouds
1:56 AM 84.9 °F 83.7 °F 55.9 °F 37% 29.84 in 10.0 mi South 4.6 mph - N/A   Partly Cloudy
2:56 AM 82.9 °F 84.6 °F 64.9 °F 54% 29.84 in 10.0 mi Calm Calm - N/A   Clear
3:56 AM 82.0 °F 81.7 °F 57.0 °F 42% 29.82 in 10.0 mi South 9.2 mph - N/A   Clear
4:56 AM 81.0 °F 80.5 °F 54.0 °F 39% 29.84 in 10.0 mi SSW 9.2 mph - N/A   Clear
5:56 AM 81.0 °F - 48.0 °F 31% 29.86 in 10.0 mi South 8.1 mph - N/A   Mostly Cloudy
6:56 AM 80.1 °F - 48.9 °F 34% 29.88 in 10.0 mi South 6.9 mph - N/A   Mostly Cloudy
7:56 AM 84.0 °F 82.5 °F 53.1 °F 34% 29.90 in 10.0 mi SSE 5.8 mph - N/A   Mostly Cloudy
8:56 AM 87.1 °F 85.1 °F 54.0 °F 32% 29.91 in 10.0 mi Variable 3.5 mph - N/A   Mostly Cloudy
9:56 AM 91.0 °F 89.7 °F 57.0 °F 32% 29.91 in 10.0 mi Variable 4.6 mph - N/A   Mostly Cloudy
10:56 AM 95.0 °F 94.0 °F 57.9 °F 29% 29.91 in 10.0 mi Variable 3.5 mph - N/A   Mostly Cloudy
11:56 AM 98.1 °F 97.7 °F 59.0 °F 27% 29.89 in 10.0 mi Variable 6.9 mph - N/A   Mostly Cloudy
12:56 PM 98.1 °F 97.2 °F 57.9 °F 26% 29.87 in 10.0 mi SSE 8.1 mph - N/A   Mostly Cloudy
1:56 PM 99.0 °F 98.1 °F 57.9 °F 25% 29.85 in 10.0 mi South 6.9 mph - N/A   Mostly Cloudy
2:56 PM 99.0 °F 98.1 °F 57.9 °F 25% 29.84 in 10.0 mi Calm Calm - N/A   Mostly Cloudy
3:36 PM 98.6 °F 98.5 °F 59.0 °F 27% 29.91 in 10.0 mi NNW 4.6 mph - N/A   Mostly Cloudy
3:39 PM 98.6 °F 99.4 °F 60.8 °F 29% 29.91 in 10.0 mi NNE 11.5 mph 16.1 mph N/A Thunderstorm Thunderstorm
3:56 PM 91.0 °F 90.9 °F 61.0 °F 36% 29.84 in 9.0 mi NNE 21.9 mph 34.5 mph N/A Thunderstorm Thunderstorm
4:21 PM 78.8 °F - 71.6 °F 78% 29.92 in 4.0 mi East 28.8 mph 38.0 mph 0.03 in Rain , Thunderstorm Thunderstorms and Rain
4:30 PM 78.8 °F - 71.6 °F 78% 29.93 in 7.0 mi ESE 18.4 mph 32.2 mph 0.04 in Rain , Thunderstorm Light Thunderstorms and Rain
4:44 PM 77.0 °F - - N/A% 29.93 in 4.0 mi SSE 17.3 mph 24.2 mph 0.11 in Rain , Thunderstorm Thunderstorms and Rain
4:52 PM 77.0 °F - 57.2 °F 50% 29.94 in 10.0 mi South 11.5 mph 20.7 mph 0.11 in Rain , Thunderstorm Light Thunderstorms and Rain
4:56 PM 77.0 °F - 57.9 °F 52% 29.88 in 10.0 mi South 10.4 mph - 0.11 in Rain , Thunderstorm Light Thunderstorms and Rain
5:05 PM 78.8 °F - 60.8 °F 54% 29.93 in 10.0 mi SSW 17.3 mph 25.3 mph 0.00 in Rain Light Rain
5:56 PM 77.0 °F - - N/A% 29.90 in 10.0 mi SW 12.7 mph - 0.01 in Rain Light Rain
6:52 PM 78.8 °F - 69.8 °F 74% 29.95 in 10.0 mi SW 9.2 mph - 0.00 in Rain , Thunderstorm Light Thunderstorms and Rain
6:56 PM 79.0 °F - 70.0 °F 74% 29.89 in 10.0 mi SSW 6.9 mph - 0.01 in Rain , Thunderstorm Light Thunderstorms and Rain
7:56 PM 77.0 °F - 71.1 °F 82% 29.88 in 10.0 mi ENE 3.5 mph - 0.02 in Rain , Thunderstorm Light Thunderstorms and Rain
8:56 PM 78.1 °F - 72.0 °F 81% 29.90 in 10.0 mi Calm Calm - 0.00 in   Mostly Cloudy
9:30 PM 78.8 °F - 71.6 °F 78% 29.98 in 10.0 mi SSW 5.8 mph - N/A   Mostly Cloudy
9:56 PM 80.1 °F 83.6 °F 71.1 °F 74% 29.91 in 10.0 mi Calm Calm - N/A   Mostly Cloudy
10:56 PM 79.0 °F - 73.0 °F 82% 29.92 in 10.0 mi Calm Calm - N/A   Mostly Cloudy
11:56 PM 78.1 °F - 72.0 °F 81% 29.91 in 10.0 mi North 4.6 mph - N/A   Clear